sat.trackr.live / text

‹ back to catalog

YAOGAN-24

NORAD 40310 · 2014-072A

PAYLOAD ACTIVE UNKNOWN

§ Identity

Operator
Country
PRC
Launch date
2014-11-20
Launch site
JSC
Launch vehicle
Mass (kg)
RCS (m²)
4.23

Purposes: earth_obs

External: N2YO · Heavens-Above · Gunter

§ Orbital elements

Epoch: 2026-09-20T04:24:51.652224Z

Period
97.55 min
Inclination
98.1627°
Eccentricity
0.0013692
Mean motion
14.76185698 rev/d
Perigee alt
631.8 km
Apogee alt
651.0 km
Semi-major
7,019.5 km
B*
4.0598e-5
RAAN
41.3890°
Arg perigee
325.1279°
Mean anomaly
34.9031°
Rev number
63,773

§ Raw data

YAOGAN-241 40310U 14072A   26263.18393116  .00000227  00000+0  40598-4 0  99932 40310  98.1627  41.3890 0013692 325.1279  34.9031 14.76185698637739

JSON: /api/v1/satellites/40310 · /tle

For live sub-satellite position, see the globe view (requires WebGL).

§ Visibility from observer

Set your observer location to see the next 7 days of passes ≥ 10°. The values pass through the URL so the page stays shareable.

No JS? Fill the form by hand. The geolocation button needs JavaScript.